This is the latest recevied weather packets stored in our database for station/object NA9VY-8. If no packets are shown the sender has not sent any weather packets the latest 10 day(s).
| Time | Temp. | Humidity | Pressure | Rain* | Wind** | Luminosity | Snow |
|---|---|---|---|---|---|---|---|
| 1777701060 | 2.78° C | 99% | 1024.2 hPa | 0 mm | - | 0 W/m² | - |
| 1777700759 | 2.78° C | 99% | 1024.3 hPa | 0 mm | - | 0 W/m² | - |
| 1777700455 | 2.22° C | 99% | 1024.1 hPa | 0 mm | - | 0 W/m² | - |
| 1777700152 | 2.22° C | 99% | 1024.1 hPa | 0 mm | - | 0 W/m² | - |
| 1777699850 | 2.22° C | 99% | 1024.2 hPa | 0 mm | - | 0 W/m² | - |
| 1777699549 | 2.78° C | 99% | 1024 hPa | 0 mm | - | 0 W/m² | - |
| 1777699246 | 2.78° C | 99% | 1023.9 hPa | 0 mm | - | 0 W/m² | - |
| 1777698944 | 2.78° C | 98% | 1023.7 hPa | 0 mm | - | 0 W/m² | - |
| 1777698642 | 2.78° C | 98% | 1023.8 hPa | 0 mm | - | 0 W/m² | - |
| 1777698337 | 2.78° C | 98% | 1023.8 hPa | 0 mm | - | 0 W/m² | - |
| 1777698035 | 2.78° C | 98% | 1023.8 hPa | 0 mm | - | 0 W/m² | - |
| 1777697731 | 2.78° C | 98% | 1023.7 hPa | 0 mm | - | 0 W/m² | - |
| 1777697428 | 2.78° C | 98% | 1023.6 hPa | 0 mm | - | 0 W/m² | - |
| 1777697125 | 2.78° C | 98% | 1023.7 hPa | 0 mm | - | 0 W/m² | - |
| 1777696821 | 3.33° C | 98% | 1023.8 hPa | 0 mm | - | 0 W/m² | - |
| 1777696519 | 3.33° C | 98% | 1024 hPa | 0 mm | - | 0 W/m² | - |
| 1777696215 | 2.78° C | 97% | 1023.8 hPa | 0 mm | - | 0 W/m² | - |
| 1777695910 | 3.33° C | 97% | 1023.7 hPa | 0 mm | - | 0 W/m² | - |
| 1777695608 | 3.33° C | 97% | 1023.7 hPa | 0 mm | - | 0 W/m² | - |
| 1777695306 | 3.33° C | 97% | 1023.8 hPa | 0 mm | - | 0 W/m² | - |
| 1777695002 | 3.33° C | 97% | 1023.9 hPa | 0 mm | - | 0 W/m² | - |
| 1777694699 | 3.33° C | 96% | 1023.9 hPa | 0 mm | - | 0 W/m² | - |
| 1777694395 | 3.33° C | 96% | 1023.9 hPa | 0 mm | - | 0 W/m² | - |
| 1777694091 | 3.89° C | 96% | 1023.9 hPa | 0 mm | - | 0 W/m² | - |
| 1777693790 | 3.89° C | 96% | 1023.5 hPa | 0 mm | - | 0 W/m² | - |
* Rain latest hour (hover to see other rain measurements)
** Current wind speed in m/s (hover to see current wind gust speed)